FW7705 Weather Reports


Display with metric or nautical units.
time (UTC)temp
F
wind
direction
speed
MPH
gust
MPH
rain 1hr
in
rain 24hr
in
rain mn
in
humidity
%
barometer
mb
20260506232137 44 247 1.0 1.0 0.00 0.39 0.39 95 1009.8
20260506231634 44 326 0.0 0.0 0.00 0.39 0.39 95 1009.6
20260506231133 44 269 1.0 1.0 0.00 0.39 0.39 95 1009.8
20260506230629 44 235 2.0 3.0 0.00 0.39 0.39 95 1009.6
20260506230126 44 328 1.0 1.0 0.00 0.39 0.39 96 1009.3
20260506225622 44 328 0.0 0.0 0.00 0.39 0.39 95 1009.6
20260506225119 44 326 0.0 0.0 0.00 0.39 0.39 95 1009.4
20260506224616 44 330 2.0 2.0 0.00 0.39 0.39 95 1009.3
20260506224112 44 291 2.0 3.0 0.00 0.39 0.39 95 1009.5
20260506223608 44 316 2.0 2.0 0.00 0.39 0.39 95 1008.9
20260506223105 44 311 2.0 2.0 0.00 0.39 0.39 95 1009.3
20260506222602 44 282 4.0 4.0 0.00 0.39 0.39 96 1009.1
20260506222058 44 292 3.0 3.0 0.00 0.39 0.39 96 1009.3
20260506221556 44 329 4.0 6.0 0.00 0.39 0.39 96 1009.4
20260506221054 44 348 5.0 6.0 0.00 0.39 0.39 97 1009.1
20260506220549 44 311 3.0 4.0 0.00 0.39 0.39 97 1009.3
20260506220045 44 282 3.0 3.0 0.00 0.39 0.39 97 1009.0
20260506215542 44 328 4.0 4.0 0.00 0.39 0.39 97 1009.0
20260506215038 44 326 5.0 9.0 0.00 0.39 0.39 97 1009.4
20260506214535 44 271 6.0 8.0 0.00 0.39 0.39 97 1009.3
20260506214032 44 309 4.0 6.0 0.00 0.39 0.39 97 1008.9
20260506213530 45 337 3.0 3.0 0.00 0.39 0.39 96 1008.9
20260506213027 45 322 4.0 6.0 0.00 0.39 0.39 96 1009.0
20260506212524 45 303 3.0 4.0 0.00 0.39 0.39 96 1008.8
20260506212019 45 302 6.0 7.0 0.00 0.39 0.39 96 1008.9
20260506211515 46 330 3.0 3.0 0.00 0.39 0.39 96 1008.4
20260506211013 46 357 2.0 2.0 0.00 0.39 0.39 96 1008.6
20260506210508 46 298 5.0 6.0 0.00 0.39 0.39 96 1008.5
20260506210005 46 262 7.0 8.0 0.00 0.39 0.39 96 1008.5
20260506205502 46 312 3.0 4.0 0.00 0.39 0.39 95 1008.4
20260506204957 46 15 2.0 2.0 0.00 0.39 0.39 95 1008.0
20260506204456 46 351 6.0 8.0 0.00 0.39 0.39 95 1008.1
20260506203953 46 358 2.0 2.0 0.00 0.39 0.39 96 1007.8
20260506203450 46 317 2.0 2.0 0.00 0.39 0.39 96 1008.0
20260506202947 46 311 3.0 3.0 0.00 0.39 0.39 97 1008.0
20260506202444 46 338 3.0 3.0 0.00 0.39 0.39 97 1007.8
20260506201940 46 304 6.0 9.0 0.00 0.39 0.39 97 1007.6
20260506201438 46 318 5.0 7.0 0.00 0.39 0.39 97 1007.6
20260506200934 46 345 6.0 7.0 0.00 0.39 0.39 97 1007.5
20260506200431 46 327 2.0 4.0 0.00 0.39 0.39 97 1007.5
20260506195927 46 341 6.0 8.0 0.00 0.39 0.39 97 1007.4
20260506195424 46 16 2.0 3.0 0.00 0.39 0.39 97 1007.5
20260506194921 46 355 7.0 9.0 0.05 0.39 0.39 98 1007.3
20260506194418 46 312 4.0 6.0 0.05 0.39 0.39 98 1007.4
20260506193915 46 284 4.0 6.0 0.00 0.38 0.38 98 1007.5
20260506193412 47 308 3.0 4.0 0.00 0.38 0.38 98 1007.5
20260506192908 47 332 6.0 7.0 0.07 0.38 0.38 98 1007.4
20260506192405 47 341 3.0 4.0 0.07 0.38 0.38 98 1007.1
20260506191902 47 353 4.0 6.0 0.00 0.37 0.37 98 1007.4
20260506191358 47 3 2.0 7.0 0.05 0.37 0.37 98 1007.4
20260506190855 47 349 5.0 7.0 0.05 0.37 0.37 98 1007.5
20260506190352 47 353 4.0 6.0 0.00 0.36 0.36 98 1006.8
20260506185849 47 329 5.0 7.0 0.00 0.36 0.36 98 1007.0
20260506185346 47 310 6.0 8.0 0.00 0.36 0.36 98 1007.0
20260506184843 47 357 7.0 9.0 0.00 0.36 0.36 98 1006.9
20260506184340 47 59 2.0 2.0 0.00 0.36 0.36 98 1006.7
20260506183837 47 302 3.0 3.0 0.00 0.36 0.36 98 1007.0
20260506183332 47 306 4.0 6.0 0.00 0.36 0.36 98 1006.9
20260506182830 47 354 3.0 3.0 0.00 0.36 0.36 98 1006.5
20260506182327 47 357 3.0 4.0 0.00 0.36 0.36 98 1006.9
20260506181825 47 350 3.0 4.0 0.00 0.36 0.36 98 1006.7
20260506181322 47 318 3.0 4.0 0.07 0.36 0.36 98 1006.5
20260506180819 47 301 4.0 4.0 0.07 0.36 0.36 98 1006.7
20260506180315 47 324 1.0 2.0 0.00 0.35 0.35 98 1006.5
20260506175812 47 8 4.0 6.0 0.00 0.35 0.35 98 1006.7
20260506175309 47 347 3.0 4.0 0.00 0.35 0.35 97 1006.3
20260506174806 47 343 1.0 1.0 0.00 0.35 0.35 97 1006.3
20260506174303 47 293 5.0 7.0 0.00 0.35 0.35 97 1006.1
20260506173800 47 330 3.0 4.0 0.00 0.35 0.35 97 1006.2
20260506173257 48 358 3.0 4.0 0.00 0.35 0.35 97 1006.2
20260506172754 47 333 5.0 7.0 0.00 0.35 0.35 97 1006.2
20260506172251 48 355 6.0 7.0 0.00 0.35 0.35 97 1006.2
20260506171748 48 336 5.0 8.0 0.00 0.35 0.35 97 1006.0
20260506171245 48 10 4.0 6.0 0.00 0.35 0.35 98 1006.2
20260506170743 48 15 4.0 4.0 0.00 0.35 0.35 98 1006.1
20260506170239 48 10 5.0 8.0 0.00 0.35 0.35 98 1006.1
20260506165738 48 17 3.0 3.0 0.00 0.35 0.35 98 1006.4
20260506165234 48 24 3.0 3.0 0.00 0.35 0.35 98 1006.3
20260506164732 49 29 3.0 4.0 0.00 0.35 0.35 98 1006.3
20260506164228 49 358 2.0 3.0 0.00 0.35 0.35 98 1006.0
20260506163725 49 324 2.0 2.0 0.00 0.35 0.35 97 1006.0
20260506163220 49 13 5.0 6.0 0.00 0.35 0.35 97 1006.2
20260506162716 49 5 5.0 7.0 0.00 0.35 0.35 97 1006.1
20260506162214 50 329 5.0 6.0 0.00 0.35 0.35 96 1006.0
20260506161711 51 15 2.0 2.0 0.00 0.35 0.35 96 1005.8
20260506161208 51 29 2.0 3.0 0.00 0.35 0.35 96 1005.6
20260506160706 52 33 2.0 2.0 0.00 0.35 0.35 95 1005.5
20260506160202 55 359 5.0 6.0 0.07 0.35 0.35 95 1005.6
20260506155701 56 259 3.0 3.0 0.07 0.35 0.35 97 1005.4
20260506155158 56 98 1.0 2.0 0.00 0.34 0.34 98 1005.7
20260506153300 55 210 2.0 2.0 0.00 0.33 0.33 97 1005.8
20260506152756 56 172 1.0 2.0 0.00 0.33 0.33 97 1005.8
20260506152254 56 198 1.0 1.0 0.00 0.33 0.33 97 1005.9
20260506151753 56 163 1.0 1.0 0.00 0.33 0.33 97 1005.8
20260506151249 56 149 1.0 2.0 0.07 0.33 0.33 97 1005.7
20260506150745 56 202 0.0 0.0 0.07 0.33 0.33 97 1005.9
20260506150243 56 191 2.0 2.0 0.00 0.32 0.32 96 1005.7
20260506145739 56 185 0.0 1.0 0.00 0.32 0.32 97 1005.7
20260506145236 56 148 0.0 1.0 0.00 0.32 0.32 96 1005.9
20260506144733 56 181 1.0 1.0 0.00 0.32 0.32 96 1005.4
20260506144230 56 147 1.0 1.0 0.00 0.32 0.32 96 1005.5
20260506143728 56 180 0.0 1.0 0.00 0.32 0.32 96 1005.4
20260506143225 56 162 1.0 1.0 0.00 0.32 0.32 96 1005.5
20260506142724 56 177 1.0 2.0 0.05 0.32 0.32 96 1005.7
20260506142221 56 87 1.0 2.0 0.05 0.32 0.32 96 1005.7
20260506141719 56 176 2.0 2.0 0.00 0.31 0.31 96 1005.8
20260506141217 56 156 1.0 1.0 0.00 0.31 0.31 97 1005.7
20260506140715 55 116 1.0 1.0 0.00 0.31 0.31 98 1005.6
20260506140211 55 213 0.0 0.0 0.07 0.31 0.31 98 1005.8
20260506135708 55 181 1.0 1.0 0.07 0.31 0.31 99 1005.8
20260506123917 49 43 1.0 1.0 0.07 0.14 0.14 99 1006.1
20260506123414 49 43 1.0 1.0 0.07 0.14 0.14 99 1006.1
20260506122912 49 43 0.0 0.0 0.12 0.14 0.14 99 1006.3
20260506122408 49 43 0.0 0.0 0.05 0.13 0.13 99 1006.1
20260506121907 49 43 0.0 0.0 0.00 0.12 0.12 99 1006.0
20260506121403 49 43 0.0 0.0 0.00 0.12 0.12 99 1005.9
20260506120900 49 44 0.0 0.0 0.07 0.12 0.12 99 1006.0
20260506120358 49 44 0.0 0.0 0.07 0.12 0.12 99 1006.0
20260506115855 49 44 0.0 0.0 0.00 0.11 0.11 99 1006.2
20260506115353 49 43 0.0 1.0 0.00 0.11 0.11 99 1006.1
20260506114851 49 43 0.0 0.0 0.14 0.10 0.10 99 1006.4
20260506114348 49 43 0.0 0.0 0.14 0.10 0.10 99 1006.4
20260506113847 49 43 0.0 0.0 0.14 0.10 0.10 99 1006.5
20260506113344 49 43 0.0 0.0 0.12 0.09 0.09 99 1006.7
20260506112840 48 43 0.0 0.0 0.12 0.08 0.08 99 1007.0
20260506112338 48 44 0.0 0.0 0.07 0.07 0.07 99 1006.8
20260506111835 48 44 0.0 0.0 0.05 0.06 0.06 99 1006.9
20260506111333 48 44 0.0 0.0 0.05 0.06 0.06 99 1006.8
20260506110831 48 44 0.0 0.0 0.00 0.05 0.05 99 1006.9
20260506110327 48 44 0.0 0.0 0.00 0.05 0.05 99 1006.9
20260506105824 48 44 0.0 0.0 0.07 0.05 0.05 98 1006.9
20260506105320 48 44 0.0 0.0 0.07 0.05 0.05 98 1006.9
20260506104818 48 44 0.0 0.0 0.00 0.04 0.04 98 1006.8
20260506104316 48 44 0.0 0.0 0.00 0.04 0.04 98 1006.7
20260506103813 48 44 0.0 0.0 0.00 0.04 0.04 98 1006.9
20260506103311 48 44 0.0 0.0 0.05 0.04 0.04 98 1006.7
20260506102808 48 44 1.0 1.0 0.05 0.04 0.04 98 1006.7
20260506102306 48 46 1.0 1.0 0.00 0.03 0.03 98 1006.7
20260506101803 48 45 2.0 2.0 0.00 0.03 0.03 98 1006.5
20260506101259 48 46 2.0 2.0 0.00 0.03 0.03 98 1006.4
20260506100757 48 26 1.0 1.0 0.00 0.03 0.03 98 1006.5
20260506100255 48 25 2.0 2.0 0.00 0.03 0.03 98 1006.7
20260506095753 48 39 2.0 2.0 0.00 0.03 0.03 98 1006.5
20260506095250 48 18 2.0 2.0 0.00 0.03 0.03 98 1006.5
20260506094746 48 100 1.0 1.0 0.07 0.03 0.03 98 1006.3
20260506094245 48 105 1.0 1.0 0.07 0.03 0.03 98 1006.3
20260506093743 48 145 0.0 0.0 0.07 0.03 0.03 98 1006.3
20260506093240 48 145 0.0 0.0 0.00 0.02 0.02 98 1006.5
20260506092737 48 145 0.0 0.0 0.05 0.02 0.02 98 1006.2
20260506092235 48 145 0.0 0.0 0.05 0.02 0.02 97 1006.4
20260506091732 48 145 1.0 1.0 0.00 0.01 0.01 97 1006.4
20260506091230 48 145 0.0 0.0 0.00 0.01 0.01 97 1006.3
20260506090728 48 145 0.0 0.0 0.07 0.01 0.01 97 1006.3
20260506090224 48 145 0.0 0.0 0.07 0.01 0.01 97 1006.7
20260506085721 48 145 0.0 0.0 0.07 0.01 0.01 97 1006.7
20260506085217 48 145 0.0 0.0 0.00 0.00 0.00 97 1007.0
20260506084714 48 146 0.0 0.0 0.00 0.00 0.00 97 1006.9
20260506084210 48 203 0.0 0.0 0.00 0.00 0.00 97 1007.1
20260506083707 48 215 1.0 1.0 0.00 0.00 0.00 97 1007.0
20260506083205 48 92 0.0 1.0 0.00 0.00 0.00 96 1006.9
20260506082702 48 92 0.0 0.0 0.00 0.00 0.00 96 1007.1
20260506082202 48 92 0.0 0.0 0.00 0.00 0.00 96 1007.0
20260506081701 48 92 0.0 0.0 0.00 0.00 0.00 96 1006.9
20260506081158 48 92 0.0 0.0 0.00 0.00 0.00 96 1006.8
20260506080655 48 92 0.0 0.0 0.00 0.00 0.00 96 1006.5
20260506080151 48 87 1.0 1.0 0.00 0.00 0.00 96 1006.8
20260506073136 48 35 1.0 2.0 0.00 0.00 0.00 96 1007.1
20260506072632 48 15 2.0 2.0 0.00 0.00 0.00 96 1007.0
20260506072130 48 55 2.0 2.0 0.00 0.00 0.00 96 1007.0
20260506071628 48 58 1.0 1.0 0.00 0.00 0.00 96 1007.1
20260506071125 48 33 1.0 2.0 0.00 0.00 0.00 96 1007.0
20260506070622 48 45 1.0 1.0 0.00 0.00 0.00 96 1007.4
20260506070119 48 59 1.0 1.0 0.00 0.00 0.00 96 1007.2
20260506062056 49 55 1.0 1.0 0.00 0.00 0.00 95 1007.8
20260506061552 49 55 0.0 0.0 0.00 0.00 0.00 95 1007.9
20260506061050 49 55 1.0 1.0 0.00 0.00 0.00 94 1007.8
20260506060548 49 55 1.0 1.0 0.00 0.00 0.00 94 1007.9
20260506051017 48 56 0.0 0.0 0.00 0.00 0.00 94 1008.7
20260506050515 48 56 0.0 0.0 0.00 0.00 0.00 94 1008.6
20260506045006 48 56 0.0 0.0 0.00 0.00 0.00 94 1008.9
20260506044504 48 56 1.0 1.0 0.00 0.00 0.00 94 1008.9
20260506044000 48 56 0.0 0.0 0.00 0.00 0.00 94 1009.1
20260506043457 48 56 0.0 1.0 0.00 0.00 0.00 93 1009.0
20260506042955 49 56 0.0 0.0 0.00 0.00 0.00 91 1009.0
20260506042454 50 56 0.0 0.0 0.00 0.00 0.00 90 1008.9
20260506041951 50 56 0.0 0.0 0.00 0.00 0.00 89 1008.8
20260506041450 50 56 0.0 0.0 0.00 0.00 0.00 89 1008.9
20260506040947 50 56 0.0 0.0 0.00 0.00 0.00 89 1008.8
20260506040444 51 55 0.0 0.0 0.00 0.00 0.00 88 1008.9
20260506035939 51 57 1.0 1.0 0.00 0.26 0.26 88 1009.0
20260506035437 51 60 0.0 1.0 0.00 0.26 0.26 88 1008.6
20260506034934 51 45 0.0 1.0 0.00 0.26 0.26 89 1009.0
20260506034431 51 50 1.0 2.0 0.00 0.26 0.26 90 1009.1
20260506033928 51 74 0.0 0.0 0.00 0.26 0.26 90 1009.3
20260506033425 51 77 0.0 1.0 0.00 0.26 0.26 90 1009.3
20260506032922 50 31 1.0 1.0 0.00 0.26 0.26 90 1009.4
20260506032419 51 62 0.0 0.0 0.00 0.26 0.26 90 1009.7
20260506031916 51 61 0.0 0.0 0.00 0.26 0.26 89 1009.3
20260506031414 51 69 1.0 1.0 0.00 0.26 0.26 89 1009.3
20260506030911 51 70 0.0 0.0 0.00 0.26 0.26 88 1009.1
20260506030409 52 27 2.0 3.0 0.00 0.26 0.26 88 1009.3
20260506025906 52 31 2.0 3.0 0.00 0.26 0.26 88 1009.5
20260506025403 52 39 1.0 2.0 0.00 0.26 0.26 88 1009.4
20260506024859 52 8 2.0 3.0 0.00 0.26 0.26 88 1009.3
20260506024356 52 33 1.0 2.0 0.00 0.26 0.26 88 1009.3
20260506023851 52 40 2.0 2.0 0.00 0.26 0.26 88 1009.4
20260506023349 52 16 3.0 3.0 0.00 0.26 0.26 87 1009.6
20260506022845 52 46 1.0 1.0 0.00 0.26 0.26 87 1009.7
20260506022344 52 23 2.0 3.0 0.00 0.26 0.26 87 1009.5
20260506021841 53 38 1.0 1.0 0.00 0.26 0.26 87 1009.9
20260506021337 53 20 1.0 1.0 0.00 0.26 0.26 87 1009.7
20260506020834 53 38 1.0 1.0 0.00 0.26 0.26 86 1009.8
20260506020332 53 39 3.0 3.0 0.00 0.26 0.26 85 1009.6
20260506015829 53 28 1.0 1.0 0.00 0.26 0.26 85 1009.7
20260506015327 53 15 2.0 2.0 0.00 0.26 0.26 85 1009.1
20260506014823 53 34 4.0 4.0 0.00 0.26 0.26 84 1009.1
20260506014320 54 356 4.0 6.0 0.00 0.26 0.26 83 1009.0
20260506013817 54 19 5.0 6.0 0.00 0.26 0.26 82 1008.9
20260506013314 55 21 9.0 10.0 0.00 0.26 0.26 81 1009.0
20260506012811 55 63 3.0 3.0 0.00 0.26 0.26 84 1008.7
20260506012308 56 22 5.0 7.0 0.00 0.26 0.26 85 1008.6
20260506011805 57 28 5.0 7.0 0.00 0.26 0.26 86 1008.4
20260506011301 58 8 7.0 8.0 0.00 0.26 0.26 86 1008.1
20260506010759 58 347 6.0 9.0 0.00 0.26 0.26 88 1008.1
20260506010257 58 39 5.0 7.0 0.00 0.26 0.26 88 1008.0
20260506005754 59 322 6.0 7.0 0.00 0.26 0.26 88 1008.1
20260506005250 59 357 6.0 8.0 0.00 0.26 0.26 87 1008.1
20260506004746 59 24 6.0 8.0 0.00 0.26 0.26 87 1008.1
20260506004244 59 268 4.0 7.0 0.00 0.26 0.26 86 1008.0
20260506003740 59 342 3.0 3.0 0.00 0.26 0.26 85 1008.0
20260506003236 60 331 5.0 6.0 0.00 0.26 0.26 85 1007.9
20260506002733 60 265 5.0 6.0 0.00 0.26 0.26 84 1007.8
20260506002229 60 310 2.0 2.0 0.00 0.26 0.26 84 1007.7
20260506001725 60 308 1.0 1.0 0.00 0.26 0.26 84 1007.5
20260506001223 60 321 3.0 3.0 0.00 0.26 0.26 85 1007.5
20260506000719 60 330 3.0 3.0 0.00 0.26 0.26 88 1007.3
20260506000219 60 359 4.0 4.0 0.00 0.26 0.26 89 1007.5
20260505235714 60 111 0.0 0.0 0.00 0.26 0.26 90 1007.3
20260505235212 60 111 0.0 0.0 0.00 0.26 0.26 90 1007.1
20260505234708 60 111 0.0 0.0 0.00 0.26 0.26 90 1007.1
20260505234206 60 135 1.0 1.0 0.00 0.26 0.26 90 1007.1
20260505233702 60 135 1.0 1.0 0.00 0.26 0.26 90 1007.0
20260505233200 60 135 2.0 2.0 0.00 0.26 0.26 90 1006.9
20260505232657 60 134 1.0 2.0 0.00 0.26 0.26 91 1006.9